sat.trackr.live / text

‹ back to catalog

STARLINK-34927

NORAD 65196 · 2025-175Y

PAYLOAD ACTIVE UNKNOWN

§ Identity

Operator
Country
US
Launch date
2025-08-14
Launch site
AFWTR
Launch vehicle
Mass (kg)
RCS (m²)

Purposes: comms

External: N2YO · Heavens-Above · Gunter

§ Orbital elements

Epoch: 2026-09-20T13:42:36.773280Z

Period
93.91 min
Inclination
97.2850°
Eccentricity
0.0003254
Mean motion
15.33463774 rev/d
Perigee alt
463.3 km
Apogee alt
467.7 km
Semi-major
6,843.6 km
B*
4.3956e-4
RAAN
132.5538°
Arg perigee
103.4705°
Mean anomaly
256.6901°
Rev number
6,214

§ Raw data

STARLINK-349271 65196U 25175Y   26263.57125895  .00014152  00000+0  43956-3 0  99902 65196  97.2850 132.5538 0003254 103.4705 256.6901 15.33463774 62146

JSON: /api/v1/satellites/65196 · /tle

For live sub-satellite position, see the globe view (requires WebGL).

§ Visibility from observer

Set your observer location to see the next 7 days of passes ≥ 10°. The values pass through the URL so the page stays shareable.

No JS? Fill the form by hand. The geolocation button needs JavaScript.